Flag for Venezuela Weather past 2 weeks in Barquisimeto, Venezuela

Now
73 °F

Passing clouds.


Feels Like: 72 °F
Forecast: 71 / 90 °F
Wind: 8 mph from Southeast

Location: Barquisimeto Airport


UV Index: 10 (Very high)

Visibility: N/A


Pressure: 29.98 "Hg

Humidity: 89%

Dew point: 70 °F

Location of BarquisimetoLocation

Historic Weather in Barquisimeto

°F

Barquisimeto temperature yesterday

Maximum temperature yesterday: 84 °F (at 3:30 PM)
Minimum temperature yesterday: 68 °F (at 8:30 AM)
Average temperature yesterday: 75 °F

Past Weeks' High & Low Weather Summary

 TemperatureHumidityPressure
High91 °F (Apr 7, 2:30 PM)100% (Apr 7, 12:30 PM)30.09 "Hg (Apr 7, 12:30 PM)
Low37 °F (Apr 7, 12:30 PM)34% (Apr 9, 3:30 PM)29.86 "Hg (Apr 14, 4:30 PM)
Average78 °F69%30.00 "Hg
* Reported Apr 3 8:30 PM — Apr 18 8:30 PM, Barquisimeto, Weather by CustomWeather, © 2014

Note: Actual official high and low records may vary slightly from our data, if they occured in-between our weather recording intervals... More about our weather records

Advertising

Historic Weather Conditions — Data for Previous 24 hours

 ConditionsComfort  
Time TempWeatherWind HumidityBarometerVisibility
8:30 PM
Apr 18
75 °FPassing clouds.9 mph83%29.98 "HgN/A
7:30 PM77 °FPassing clouds.13 mph79%29.95 "HgN/A
6:30 PM82 °FPassing clouds.6 mph62%29.92 "HgN/A
5:30 PM84 °FScattered clouds.9 mph58%29.92 "HgN/A
4:30 PM86 °FScattered clouds.16 mph59%29.92 "HgN/A
3:30 PM86 °FScattered clouds.14 mph55%29.95 "HgN/A
2:30 PM86 °FScattered clouds.15 mph55%29.98 "HgN/A
1:30 PM84 °FScattered clouds.16 mph58%29.98 "HgN/A
12:30 PM82 °FPartly sunny.12 mph62%30.01 "HgN/A
11:30 AM79 °FPartly sunny.15 mph70%30.01 "HgN/A
10:30 AM77 °FPartly sunny.12 mph74%30.01 "HgN/A
9:30 AM72 °FOvercast.8 mph88%30.01 "HgN/A
8:30 AM70 °FOvercast.7 mph94%30.01 "HgN/A
7:30 AM70 °FOvercast.6 mph94%29.98 "HgN/A
6:30 AM72 °FOvercast.8 mph88%29.98 "HgN/A
5:30 AM72 °FOvercast.10 mph88%29.98 "HgN/A
1:30 AM72 °FOvercast.9 mph94%30.01 "HgN/A
10:30 PM
Apr 17
72 °FOvercast.6 mph94%30.01 "HgN/A
Weather by CustomWeather, © 2014

See weather overview